TDRS 6

Last updated on Thu Jul 03 2025 00:02:38 GMT+0000 (Coordinated Universal Time)

1 22314U 93003B 25183.26086214 -.00000298 00000+0 00000+0 0 9993 2 22314 14.1737 359.6367 0010780 171.3830 157.3553 1.00264418118897
UTC large
Height (km)
Speed (km/s)
/
Latitude / Longitude
Inclination (degrees)
Orbital Period (minutes)
Azimuth
Elevation
Range (km)
Doppler Factor

Next 0 passes for location: London (51.5072 / 0.1276)

Sorry there are no passes over London.